Theta_e
314 315 319 318 323 316 317 318 317 318 319 316 323 327 329 326 329 322 330 330 331 331 337 338 334 332 330 328 333 333 334 335 337 337 336 333 332 330 330 331 330 330 331 330 328 328 329 329 329
314 317 318 313 319 317 316 312 318 318 318 320 318 322 325 326 331 329 331 330 330 331 337 337 329 327 329 325 329 332 332 334 337 337 336 332 330 330 330 330 329 330 330 331 329 327 327 327 327
315 317 316 315 311 317 315 312 316 315 318 315 321 321 324 329 329 330 330 329 330 331 338 336 328 327 324 327 327 325 332 332 336 336 334 331 329 329 329 330 328 329 330 328 328 327 327 327 327
317 313 311 316 316 313 313 312 313 315 313 314 320 324 323 328 330 330 330 328 329 334 335 334 328 326 325 325 324 327 332 331 334 335 334 331 329 328 329 330 327 327 328 327 328 328 327 326 325
314 311 316 315 314 312 310 313 312 314 314 317 317 322 330 329 331 330 329 327 330 333 336 336 328 324 324 323 323 326 331 331 332 334 333 330 328 328 328 328 326 326 328 327 328 328 326 325 325
313 311 316 317 314 312 314 312 312 313 313 315 321 327 330 329 330 331 329 328 330 332 334 335 329 325 324 324 325 326 326 328 331 332 331 329 327 327 327 328 326 326 328 328 328 326 324 325 324
313 314 315 313 313 316 316 310 312 312 313 315 320 326 322 327 333 331 330 330 332 332 333 334 331 327 324 323 323 323 323 325 329 330 329 328 327 326 325 326 325 325 326 327 328 324 324 324 323
310 312 314 312 313 315 311 312 310 312 313 313 317 318 321 329 334 331 331 331 332 332 333 334 333 329 325 324 325 325 324 325 326 329 327 324 326 324 324 325 325 325 325 325 326 326 325 324 323
308 314 315 315 311 313 308 313 308 309 311 311 316 315 318 331 333 332 331 332 333 333 333 335 334 331 327 325 326 326 324 324 324 326 327 325 322 321 321 323 324 324 324 324 324 326 324 324 323
312 313 314 311 310 311 309 312 311 312 312 313 313 313 322 332 332 332 331 331 332 334 335 337 337 333 330 327 328 327 326 324 324 323 324 323 319 318 318 321 323 323 323 323 324 322 321 321 320
310 313 310 310 310 309 310 311 309 311 313 311 313 313 325 330 331 332 331 331 332 332 334 337 337 337 332 330 328 329 327 325 324 324 323 322 318 316 317 319 322 322 322 322 322 319 319 318 317
313 310 309 311 310 310 310 308 310 309 312 308 308 313 326 329 331 331 332 332 332 332 332 335 337 337 336 333 330 329 329 327 325 324 323 322 320 316 315 316 317 320 317 318 318 319 319 319 319
311 310 310 309 308 308 309 311 311 309 307 305 307 317 326 330 331 331 332 333 334 334 333 334 336 334 334 334 333 331 330 329 327 325 323 322 321 318 315 315 314 316 316 316 317 318 318 318 319
309 308 309 309 309 309 310 308 309 308 305 306 309 311 319 327 329 330 332 333 334 335 334 335 335 336 335 333 333 334 332 331 329 327 325 323 322 320 318 315 314 314 314 315 316 316 317 317 318
306 309 309 309 309 309 309 308 309 306 304 306 306 306 311 319 326 330 332 332 334 334 335 334 336 337 334 333 332 331 332 331 330 330 328 326 324 322 320 318 315 314 313 314 315 315 315 315 316
306 305 309 306 308 309 307 308 305 305 307 307 305 304 304 306 318 326 330 332 333 334 334 334 334 336 335 334 332 332 331 330 333 331 330 329 327 323 321 320 319 316 314 313 314 314 315 315 315
304 307 307 306 307 309 307 307 306 307 306 307 305 304 303 302 303 308 318 326 331 333 333 333 334 334 336 335 332 332 331 330 332 331 329 329 327 327 323 322 322 320 316 314 313 314 314 314 314
308 305 306 305 308 309 309 309 306 306 306 306 305 304 303 303 304 306 307 309 318 326 330 332 333 333 334 335 335 332 330 330 329 332 329 328 328 327 327 324 323 322 318 315 313 313 314 314 314
304 304 306 307 309 310 309 308 307 306 306 305 305 304 303 303 303 304 305 305 307 308 319 324 329 331 332 333 335 330 331 330 330 331 331 330 329 328 328 327 324 322 323 322 316 314 314 313 313
306 307 308 308 308 309 308 309 307 306 306 305 304 303 302 301 300 301 303 304 304 306 308 316 322 326 328 331 332 332 331 331 331 331 332 331 330 329 328 328 327 325 323 321 319 315 313 312 311
307 306 307 308 306 304 303 305 303 304 303 302 300 301 302 302 303 302 304 305 307 304 305 307 312 318 323 327 330 331 331 332 331 330 329 329 331 330 329 328 327 327 325 323 322 320 314 311 311
307 305 306 307 307 306 304 304 305 303 305 303 301 301 302 303 303 302 303 305 307 308 307 305 306 310 318 324 328 330 330 330 330 331 330 329 329 330 328 329 328 328 327 324 325 322 318 313 308
306 304 306 306 306 307 307 306 305 301 307 304 303 304 304 303 303 303 303 305 306 308 309 311 310 307 308 317 325 328 330 330 330 330 330 330 329 328 328 328 329 328 327 328 326 323 319 316 312
304 304 303 302 302 306 305 304 303 303 306 305 306 305 304 303 303 302 304 305 306 307 308 309 310 314 315 314 319 326 327 328 329 329 329 329 329 329 328 328 328 327 325 325 326 324 320 318 315
305 305 307 309 307 307 303 305 304 304 304 305 307 306 304 302 302 302 302 303 304 305 306 308 308 308 311 319 322 323 324 325 326 326 326 327 327 327 327 328 328 326 325 324 324 323 321 320 316
305 306 309 307 307 306 305 308 305 304 303 304 305 305 303 302 301 301 301 302 303 304 305 305 306 307 307 308 309 314 319 321 321 321 322 322 322 322 322 323 323 324 323 324 324 322 321 320 318
308 307 303 305 292 304 306 305 304 305 306 305 306 304 303 302 301 301 302 303 303 304 304 304 305 305 305 306 306 307 308 308 308 308 309 309 310 311 313 315 316 318 319 319 320 320 319 319 318
306 304 308 304 303 304 304 305 306 308 307 306 306 305 303 302 302 301 301 302 302 302 302 303 303 303 303 305 305 305 306 306 306 306 307 307 307 307 308 308 309 310 311 312 315 316 316 316 316
307 307 305 305 305 304 303 305 300 309 307 306 305 304 303 301 302 301 301 301 301 301 302 301 302 302 302 302 303 303 303 304 304 304 304 304 305 305 306 306 306 307 308 308 309 309 311 312 311
307 306 306 307 306 302 305 305 303 306 305 305 305 303 302 302 301 299 300 300 300 300 301 301 302 303 302 302 302 302 302 303 302 302 301 301 302 303 303 304 304 305 305 305 306 307 307 307 308
Wind_Speed
9 8 6 6 4 4 1 3 0 2 2 2 4 4 4 2 2 1 6 10 23 24 20 15 13 12 13 14 16 14 13 15 14 16 15 13 15 14 16 17 17 17 17 17 18 18 18 19 19
6 6 6 3 4 3 3 2 4 3 2 6 4 2 2 1 1 3 13 16 25 26 21 16 12 13 13 14 15 15 15 15 14 16 15 13 14 14 15 16 17 17 17 18 17 17 17 19 19
3 6 3 4 3 3 3 4 4 2 4 1 3 3 2 2 1 14 6 25 26 24 19 17 13 13 13 13 13 14 16 13 15 15 12 14 13 14 15 15 15 15 16 15 15 15 16 17 17
2 6 4 4 1 2 2 3 4 6 1 1 1 5 1 1 6 10 18 29 27 22 19 16 14 13 13 13 13 15 16 13 14 14 12 13 13 14 15 14 15 14 14 13 13 15 16 19 17
6 3 3 3 2 1 3 1 5 4 3 2 1 4 0 4 4 11 25 30 27 22 19 16 13 12 12 12 13 14 14 13 14 12 12 10 11 12 13 14 14 12 12 11 13 15 16 16 16
4 3 4 2 2 1 1 4 4 3 1 2 3 4 2 3 12 15 27 29 25 24 20 16 14 13 12 11 12 13 13 14 13 11 9 9 10 11 12 13 12 11 11 11 12 13 14 14 15
5 4 4 4 2 1 4 6 4 4 3 3 5 3 1 4 11 21 27 26 23 21 19 18 16 13 12 12 12 11 12 13 13 10 10 11 10 10 11 13 11 10 12 9 12 10 15 15 14
4 4 4 2 4 3 5 5 3 4 5 2 1 3 3 5 14 22 26 25 22 21 20 20 17 15 14 13 11 11 11 12 12 12 10 10 10 10 11 14 11 10 11 9 8 10 12 15 13
4 4 3 6 7 3 3 4 2 2 4 1 4 3 2 17 19 23 23 22 22 21 21 20 19 17 15 14 13 12 11 11 11 11 9 8 8 9 10 12 11 10 9 9 9 10 11 11 10
4 4 9 5 5 5 6 4 7 4 2 2 2 1 4 22 25 21 19 18 21 22 21 20 19 19 17 16 14 13 12 12 11 10 10 8 8 9 9 12 11 10 9 9 9 9 10 8 7
2 5 5 4 3 5 7 3 2 6 3 6 6 5 8 14 18 21 20 23 22 23 18 20 20 20 20 18 17 15 14 13 12 11 10 9 9 9 10 11 12 11 10 9 9 9 9 6 6
5 2 3 3 4 4 7 6 3 5 3 4 5 5 11 11 17 22 23 27 25 24 21 20 21 21 21 20 20 18 16 15 14 13 12 11 10 10 11 11 11 11 10 9 7 8 7 6 6
3 3 2 4 6 4 5 2 2 6 4 3 3 7 10 13 17 18 22 28 28 26 21 24 24 24 24 23 22 21 20 18 17 16 15 13 12 12 11 11 12 12 11 10 10 10 8 7 7
4 4 4 2 3 3 3 1 1 1 4 2 4 5 6 11 14 15 21 26 29 30 26 24 25 26 25 25 23 23 23 21 20 18 17 16 14 14 13 13 13 13 12 12 12 11 10 9 9
5 5 2 1 1 2 1 4 7 2 3 4 6 4 4 10 12 23 29 29 32 33 32 28 27 27 27 27 26 24 24 24 23 22 20 19 18 17 16 15 15 15 14 14 14 14 13 12 12
5 5 3 2 3 1 3 8 3 4 1 3 6 5 6 6 17 26 26 28 30 32 33 32 31 29 29 28 28 28 27 26 25 24 24 21 21 20 19 18 17 17 18 18 17 17 17 17 17
6 4 3 2 1 2 2 6 2 1 5 3 4 6 6 7 11 20 25 29 30 31 32 33 32 32 31 31 29 29 28 28 27 25 24 24 20 23 24 23 22 21 22 22 22 22 22 21 21
6 5 2 3 2 1 3 8 6 6 4 8 7 7 7 7 10 15 15 19 27 30 29 31 32 34 33 31 29 27 28 27 27 27 27 26 26 25 26 27 26 25 25 26 27 27 27 26 24
6 5 4 1 1 2 3 5 11 7 5 8 8 7 7 8 9 11 9 12 16 21 30 32 32 34 32 29 27 27 30 30 30 29 30 30 30 29 29 30 31 31 32 32 31 31 30 29 26
4 5 3 2 3 2 3 8 10 6 4 3 6 7 6 7 8 11 7 4 6 14 20 26 31 32 33 33 28 24 24 29 30 32 31 33 33 32 32 33 34 35 35 35 35 35 33 31 31
2 6 5 3 1 3 4 7 6 3 3 6 6 3 5 5 6 7 14 16 12 4 8 15 21 27 31 31 27 23 20 23 25 29 29 31 31 33 34 35 35 35 35 38 40 39 40 31 35
5 5 6 6 4 3 3 4 5 3 3 6 7 7 6 6 5 6 12 18 19 17 10 1 10 16 22 25 28 28 24 23 25 23 23 27 30 32 33 35 35 37 37 36 38 41 42 37 26
4 6 6 4 4 4 3 2 6 3 4 5 7 6 7 6 5 7 12 18 21 21 21 16 10 1 9 16 22 27 26 23 25 24 25 26 28 28 30 32 35 37 40 41 40 39 41 41 34
10 7 7 4 3 1 3 4 6 3 4 3 2 4 5 6 6 9 17 24 27 27 27 23 20 17 8 3 11 19 21 23 22 21 21 23 25 27 29 31 34 35 38 41 42 42 41 41 40
3 6 2 2 2 5 2 2 7 1 4 5 6 4 4 4 6 7 13 20 26 28 27 27 25 24 18 12 4 3 10 13 16 17 19 20 22 24 26 26 30 31 32 37 38 37 39 40 40
7 6 5 7 4 2 1 6 4 1 2 5 2 2 5 7 6 7 13 19 25 27 28 26 26 26 22 19 14 8 4 4 7 9 12 14 17 20 21 24 24 27 27 29 34 36 37 39 40
6 5 5 7 3 3 4 5 4 4 5 4 4 6 7 6 6 7 16 23 26 28 29 28 28 28 26 22 19 16 13 11 10 9 9 11 12 15 17 19 22 24 26 28 29 32 34 36 39
5 8 4 2 4 3 3 4 5 8 10 6 5 7 6 6 7 7 15 19 23 24 25 26 27 27 25 24 23 20 18 15 13 12 12 12 13 14 15 17 19 21 24 27 26 26 30 33 36
3 3 4 5 4 6 3 6 6 16 13 10 8 6 6 6 6 5 10 18 21 23 25 26 27 27 26 24 22 20 19 17 16 15 15 15 15 15 16 16 18 20 22 25 27 30 30 32 32
0 6 6 5 5 1 3 5 1 13 10 9 8 7 6 6 5 6 10 15 20 21 22 23 24 25 25 24 24 24 23 24 24 23 21 19 19 18 18 19 20 21 22 23 25 29 31 31 32
Wind_Direction
327 334 359 42 57 66 140 227 212 162 146 117 113 140 172 94 165 176 158 161 159 153 149 150 146 143 131 129 131 128 118 109 117 113 101 89 89 88 95 97 94 91 95 92 84 86 90 94 96
336 346 46 74 83 75 253 251 186 197 131 129 101 90 81 116 97 103 136 164 161 151 152 154 152 141 133 130 136 131 118 117 116 114 104 96 94 97 102 102 95 91 100 93 89 86 90 94 98
360 30 74 87 101 162 199 203 163 114 145 112 105 52 139 153 115 157 163 159 160 156 155 155 150 140 132 131 130 129 124 131 118 114 111 105 101 102 108 106 97 98 100 99 91 91 96 95 97
30 30 45 79 187 218 217 163 161 129 237 19 137 92 319 243 167 171 160 160 163 160 159 155 152 148 139 140 133 132 134 135 127 124 117 114 105 104 109 110 102 98 101 102 98 98 103 98 96
51 54 65 76 264 274 257 188 153 134 144 143 210 161 153 121 139 162 164 165 167 164 162 160 157 152 143 142 136 135 138 135 129 136 125 114 107 111 116 114 105 102 108 101 102 108 109 99 106
51 101 73 194 247 280 166 169 138 113 155 159 98 131 171 156 152 161 168 170 174 168 169 168 165 158 152 149 143 140 140 139 139 142 130 117 115 117 120 122 112 109 109 121 118 116 111 108 109
125 90 179 150 183 51 164 158 149 160 165 231 139 125 246 202 160 163 172 174 176 177 176 175 171 167 164 162 155 150 147 146 147 150 136 128 129 130 131 131 125 120 127 125 121 118 125 123 125
115 90 121 174 166 214 163 169 115 161 212 54 112 176 183 189 162 168 173 177 179 181 182 181 179 178 176 173 166 159 157 156 154 156 151 142 142 145 143 143 143 127 131 135 136 127 136 141 144
172 75 157 191 157 204 151 163 165 176 117 219 191 159 143 156 156 158 169 178 183 188 189 188 187 187 185 180 177 173 169 166 164 166 166 162 153 156 152 152 149 136 135 141 140 135 145 146 147
89 111 204 184 184 174 176 184 164 133 120 227 191 172 151 160 162 164 172 180 187 190 193 196 195 194 192 190 187 183 181 179 177 177 176 169 167 162 160 158 162 154 142 150 155 158 154 162 168
119 166 177 185 190 141 156 151 182 133 213 221 206 177 165 168 172 174 184 189 191 194 193 200 200 201 199 198 197 194 193 190 189 189 185 180 175 174 173 173 173 178 157 164 178 159 167 174 173
95 78 160 145 123 132 154 124 197 191 206 114 247 167 166 177 187 186 189 195 196 197 199 203 204 204 205 207 205 205 203 201 201 200 198 196 193 191 189 188 187 191 186 189 181 176 178 179 180
107 150 113 97 86 76 120 137 192 248 253 251 82 165 180 188 198 201 199 202 204 203 201 207 208 208 210 208 214 212 212 212 212 210 209 208 208 207 203 201 201 202 204 201 194 193 195 195 194
129 98 109 82 113 89 146 257 17 248 357 211 188 201 198 197 202 200 206 210 209 211 207 206 208 210 212 213 217 219 223 220 217 218 219 219 219 218 215 212 212 212 212 209 207 208 209 211 211
114 87 59 36 89 72 169 277 238 252 15 314 247 263 249 226 204 214 213 215 216 218 220 215 211 213 213 217 222 223 228 233 226 223 224 226 227 225 225 222 220 221 220 217 215 218 221 224 225
76 58 120 293 125 350 127 258 295 19 101 271 285 274 256 252 230 233 229 228 226 226 223 224 224 220 218 219 223 226 230 231 232 230 227 229 232 231 229 228 232 231 226 224 224 225 226 227 229
18 166 185 274 164 121 123 260 307 21 34 312 302 304 281 279 265 252 246 240 234 231 231 230 228 227 225 221 222 226 229 228 227 235 226 226 236 239 236 233 232 231 231 228 227 229 234 236 239
168 133 210 225 256 89 140 262 279 279 294 277 290 291 283 284 274 287 273 254 245 241 235 235 232 231 231 227 220 222 226 227 229 234 233 230 234 235 238 239 237 235 232 233 230 231 232 238 241
132 119 149 205 323 200 230 264 277 278 264 280 289 297 297 293 299 311 300 274 248 239 236 232 231 232 229 219 215 220 225 228 231 233 242 238 236 237 238 240 240 236 234 237 235 232 233 235 236
115 120 172 90 17 144 1 283 267 280 283 316 301 316 316 337 332 354 1 357 261 242 238 235 234 234 232 227 218 218 225 232 234 238 239 242 239 240 239 240 243 242 238 239 239 236 232 237 235
126 148 175 156 94 63 344 307 321 10 358 13 26 21 20 360 13 5 33 40 40 31 241 239 236 237 238 235 225 222 228 233 233 235 236 243 244 246 245 244 244 247 244 245 246 242 233 231 234
154 188 131 128 99 214 22 269 302 348 40 36 27 33 24 12 16 28 33 45 42 38 44 173 231 234 237 239 233 224 221 229 234 235 238 243 252 253 254 252 251 252 251 247 249 251 244 230 235
175 122 122 104 96 90 330 76 268 335 75 29 18 28 35 24 34 43 48 57 53 52 51 53 58 67 234 232 235 235 231 235 241 247 253 252 252 256 258 258 257 257 254 252 250 248 245 239 229
149 85 52 61 89 356 249 166 281 212 148 97 15 32 30 36 45 55 66 64 59 57 58 58 58 59 65 191 223 236 246 248 250 252 255 258 255 258 258 257 256 258 257 253 255 253 248 244 239
92 103 45 5 3 217 325 135 241 233 56 143 143 88 45 47 60 52 47 49 53 53 55 58 58 55 54 62 79 245 261 264 268 273 276 276 275 269 271 269 263 257 257 253 254 254 252 253 244
184 163 153 189 193 218 88 222 245 333 106 123 126 75 74 66 54 51 46 53 55 55 56 57 57 57 55 56 55 51 25 320 296 292 288 285 283 283 285 283 279 277 270 261 259 256 256 254 253
190 196 147 106 24 67 205 272 290 112 102 138 113 99 78 64 56 49 50 58 60 60 59 60 59 57 53 51 48 46 43 37 23 2 340 322 309 301 293 286 282 278 275 271 266 266 260 259 258
164 156 81 9 129 231 260 270 217 173 176 184 156 117 95 77 57 48 47 59 65 64 61 59 56 54 51 49 46 41 36 29 19 7 354 341 330 321 312 304 295 288 281 277 270 264 264 260 260
123 181 65 118 140 164 161 250 217 179 166 164 165 134 113 97 80 67 63 69 69 65 59 55 51 47 45 42 38 35 32 26 18 9 358 346 334 324 313 306 299 293 288 282 277 272 265 263 263
203 180 155 146 219 253 147 266 345 151 165 160 157 139 118 113 112 96 82 70 62 58 54 49 45 41 35 31 28 24 18 14 10 7 3 355 345 333 321 314 304 297 290 283 280 279 278 271 264